STARLINK-5727, 55587

Orbit data source: Space-Track

STARLINK-5727, 55587 is a payload satellite owned by SpaceX/Seattle (US) in LEO that was launched on Sun, 12 Feb 2023 UTC via an FALCON 9 launch vehicle from the Air Force Eastern Test Range (AFETR). Payload-class satellites include a variety of spacecraft equipped with specific instruments for various scientific and technological missions. These include communications satellites like Starlink; space stations such as the ISS; scientific satellites like the Hubble; Earth observation satellites from companies like Planet Labs, Umbra, and HawkEye 360; GPS; miniature CubeSats for education and research; and military/defense satellites.

Loading next visibility...
Identifier
55587, 2023-020U
Orbit
LEO
Country
Flag of USUS
Related business
Manufacturer
SpaceX/Seattle
Mission
Operational Commercial Communications
Bus & Motor
STARLINK, Unknown motor
Mass
305 kg wet, ~290 kg dry
Launch date (UTC)
2023-02-12 (3 years ago)
Launch vehicle
FALCON 9
Launch site
Air Force Eastern Test Range (AFETR)
Object type
Payload
Rocket body
Debris
Shape & HBR
Box + 1 Pan, 10.1 m
Radar Cross Section
13.562 m², Large (>1 m²)

Expand to show TLE details & history
Last TLE update: 2 days ago

TLE from 2 days ago
0 STARLINK-5727
1 55587U 23020U   26171.23103003  .00000040  00000-0  10953-4 0  9992
2 55587  43.0019 146.1587 0000448 273.0721  87.0080 15.27576836184599
Epoch: 2026-06-20T05:32Z
TLE epoch observation values (Epoch: 2026-06-20T05:32:40.994Z)
Latitude
0.00002°
Longitude
154.53928°
Altitude
482.818 km
Speed
7.626 km/s
True Right ascension
09h 44m 38s
True Declination
0° 00' 00"
Sunlit
Object was in daylight at epoch
Visualization orbit readout
Latitude
Unknown
Longitude
Unknown
Altitude
Unknown
Speed
Unknown
Apparent Right ascension
Unknown
Apparent Declination
Unknown
Sunlit
N/A
Visualization observer readout
Local Sidereal Time
21:37:29
Azimuth
Unknown
Elevation
Unknown
Doppler factor
Unknown
Orbital elements
Apogee altitude
485.311 km
Perigee altitude
484.696 km
Semi-major axis
6,863.14 km
Eccentricity
0.00004
Inclination
43.0019°
RAAN
146.1587°
Arg. of periapsis
273.0721°
True anomaly
87.01313°
Mean anomaly
87.008°
Eccentric anomaly
87.01056°
Mean motion
3.81732 °/min
Orbital period
94.31 mins
BSTAR
0.000010953
Loading maneuver chart data...
Computing Atmospheric mass density...
Loading historical data...
Loading historical data...
Loading historical data...
Loading historical data...
Loading historical data...
Loading historical data...
Loading historical data...

Documentation

Showing up to 5 results
|